QPF
0.00 0.00 0.00 0.00 0.00 0.00 0.00 0.00 0.00 0.00 0.00 0.00 0.00 0.00 0.00 0.00 0.00 0.00 0.00 0.00 0.00 0.00 0.00 0.00 0.00 0.00 0.00 0.00 0.00 0.00 0.00 0.00 0.00 0.00 0.00 0.00 0.00 0.00 0.00 0.00 0.00 0.00 0.00 0.00
0.00 0.00 0.00 0.00 0.00 0.00 0.00 0.00 0.00 0.00 0.00 0.00 0.00 0.00 0.00 0.00 0.00 0.00 0.00 0.00 0.00 0.00 0.00 0.00 0.00 0.00 0.00 0.00 0.00 0.00 0.00 0.00 0.00 0.00 0.00 0.00 0.00 0.00 0.00 0.00 0.00 0.00 0.00 0.00
0.00 0.00 0.00 0.00 0.00 0.00 0.00 0.00 0.00 0.00 0.00 0.00 0.00 0.00 0.00 0.00 0.00 0.00 0.00 0.00 0.00 0.00 0.00 0.00 0.00 0.00 0.00 0.00 0.00 0.00 0.00 0.00 0.00 0.00 0.00 0.00 0.00 0.00 0.00 0.00 0.00 0.00 0.00 0.00
0.00 0.00 0.00 0.00 0.00 0.00 0.00 0.00 0.00 0.00 0.00 0.00 0.00 0.00 0.00 0.00 0.00 0.00 0.00 0.00 0.00 0.00 0.00 0.00 0.00 0.00 0.00 0.00 0.00 0.00 0.00 0.00 0.00 0.00 0.00 0.00 0.00 0.00 0.00 0.00 0.00 0.00 0.00 0.00
0.00 0.00 0.00 0.00 0.00 0.00 0.00 0.00 0.00 0.00 0.00 0.00 0.00 0.00 0.00 0.00 0.00 0.00 0.00 0.00 0.00 0.00 0.00 0.00 0.00 0.00 0.00 0.00 0.00 0.00 0.00 0.00 0.00 0.00 0.00 0.00 0.00 0.00 0.00 0.00 0.00 0.00 0.00 0.00
0.00 0.00 0.00 0.00 0.00 0.00 0.00 0.00 0.00 0.00 0.00 0.00 0.00 0.00 0.00 0.00 0.00 0.00 0.00 0.00 0.00 0.00 0.00 0.00 0.00 0.00 0.00 0.00 0.00 0.00 0.00 0.00 0.00 0.00 0.00 0.00 0.00 0.00 0.00 0.00 0.00 0.00 0.00 0.00
0.00 0.00 0.00 0.00 0.00 0.00 0.00 0.00 0.01 0.01 0.00 0.00 0.00 0.00 0.00 0.00 0.00 0.00 0.00 0.00 0.00 0.00 0.00 0.00 0.00 0.00 0.00 0.00 0.00 0.00 0.00 0.00 0.00 0.00 0.00 0.00 0.00 0.00 0.00 0.00 0.00 0.00 0.00 0.00
0.01 0.01 0.00 0.00 0.00 0.00 0.00 0.01 0.04 0.08 0.04 0.02 0.00 0.00 0.00 0.00 0.00 0.00 0.00 0.00 0.00 0.00 0.00 0.00 0.00 0.00 0.00 0.00 0.00 0.00 0.00 0.00 0.00 0.00 0.00 0.00 0.00 0.00 0.00 0.00 0.00 0.00 0.00 0.00
0.02 0.01 0.00 0.00 0.00 0.00 0.00 0.00 0.00 0.03 0.04 0.08 0.06 0.01 0.00 0.00 0.00 0.00 0.00 0.00 0.00 0.00 0.00 0.00 0.00 0.00 0.00 0.00 0.00 0.00 0.00 0.00 0.00 0.00 0.00 0.00 0.00 0.00 0.00 0.00 0.00 0.00 0.00 0.00
0.00 0.00 0.00 0.00 0.00 0.00 0.00 0.00 0.03 0.04 0.03 0.07 0.02 0.01 0.01 0.00 0.00 0.00 0.00 0.00 0.00 0.00 0.00 0.00 0.00 0.00 0.00 0.00 0.00 0.00 0.00 0.00 0.00 0.00 0.00 0.00 0.00 0.00 0.00 0.00 0.00 0.00 0.00 0.00
0.00 0.03 0.01 0.00 0.00 0.00 0.00 0.00 0.01 0.02 0.01 0.06 0.03 0.00 0.00 0.00 0.00 0.00 0.00 0.00 0.00 0.00 0.00 0.00 0.00 0.00 0.00 0.00 0.00 0.00 0.00 0.00 0.00 0.00 0.00 0.00 0.00 0.00 0.00 0.00 0.00 0.00 0.00 0.00
0.00 0.06 0.02 0.00 0.00 0.01 0.01 0.00 0.08 0.11 0.04 0.02 0.02 0.01 0.01 0.00 0.00 0.00 0.00 0.00 0.00 0.00 0.00 0.00 0.00 0.00 0.00 0.00 0.00 0.00 0.00 0.00 0.00 0.00 0.00 0.00 0.00 0.00 0.00 0.00 0.00 0.00 0.00 0.00
0.04 0.03 0.03 0.00 0.02 0.17 0.06 0.00 0.02 0.06 0.03 0.01 0.02 0.00 0.03 0.02 0.00 0.01 0.00 0.00 0.00 0.00 0.00 0.00 0.00 0.00 0.00 0.00 0.00 0.00 0.00 0.00 0.00 0.00 0.00 0.00 0.00 0.00 0.00 0.00 0.00 0.00 0.00 0.00
0.03 0.01 0.02 0.02 0.06 0.16 0.05 0.00 0.02 0.04 0.02 0.00 0.00 0.02 0.18 0.22 0.09 0.04 0.01 0.00 0.00 0.00 0.00 0.00 0.00 0.00 0.00 0.01 0.00 0.00 0.00 0.00 0.00 0.00 0.00 0.00 0.00 0.00 0.00 0.00 0.00 0.00 0.00 0.00
0.04 0.03 0.03 0.00 0.00 0.00 0.01 0.00 0.00 0.00 0.00 0.00 0.00 0.03 0.07 0.30 0.19 0.05 0.03 0.00 0.00 0.00 0.00 0.00 0.00 0.00 0.00 0.01 0.02 0.00 0.00 0.00 0.00 0.00 0.00 0.00 0.00 0.00 0.00 0.00 0.00 0.00 0.00 0.00
0.06 0.02 0.02 0.00 0.00 0.00 0.00 0.00 0.00 0.00 0.00 0.00 0.00 0.00 0.00 0.03 0.05 0.01 0.00 0.00 0.00 0.00 0.00 0.00 0.00 0.00 0.01 0.01 0.04 0.00 0.00 0.00 0.00 0.00 0.00 0.00 0.00 0.00 0.00 0.00 0.00 0.00 0.00 0.00
0.02 0.01 0.02 0.01 0.00 0.01 0.01 0.04 0.09 0.03 0.00 0.00 0.00 0.00 0.00 0.00 0.00 0.00 0.00 0.00 0.00 0.00 0.00 0.00 0.00 0.00 0.01 0.02 0.02 0.00 0.00 0.00 0.00 0.00 0.00 0.00 0.00 0.00 0.00 0.00 0.00 0.00 0.00 0.00
0.05 0.04 0.05 0.01 0.01 0.01 0.00 0.03 0.09 0.05 0.00 0.00 0.01 0.00 0.00 0.00 0.00 0.00 0.00 0.00 0.00 0.00 0.00 0.00 0.00 0.00 0.10 0.02 0.01 0.00 0.00 0.00 0.00 0.00 0.00 0.00 0.00 0.00 0.00 0.00 0.00 0.00 0.02 0.03
0.01 0.03 0.06 0.03 0.02 0.01 0.00 0.01 0.02 0.01 0.00 0.00 0.00 0.00 0.00 0.00 0.00 0.00 0.00 0.00 0.00 0.00 0.00 0.00 0.00 0.00 0.10 0.04 0.02 0.00 0.00 0.00 0.00 0.00 0.00 0.00 0.00 0.00 0.00 0.00 0.00 0.03 0.05 0.04
0.01 0.00 0.02 0.02 0.09 0.04 0.04 0.02 0.02 0.02 0.01 0.00 0.00 0.00 0.00 0.00 0.00 0.00 0.00 0.00 0.00 0.00 0.00 0.00 0.00 0.03 0.20 0.10 0.02 0.01 0.00 0.00 0.00 0.00 0.00 0.00 0.00 0.00 0.00 0.00 0.02 0.05 0.04 0.03
0.03 0.01 0.00 0.01 0.06 0.02 0.03 0.02 0.01 0.04 0.05 0.08 0.07 0.01 0.00 0.00 0.00 0.00 0.00 0.00 0.00 0.00 0.00 0.00 0.00 0.03 0.24 0.13 0.01 0.00 0.00 0.00 0.00 0.00 0.00 0.00 0.00 0.00 0.00 0.01 0.05 0.04 0.02 0.04
0.02 0.05 0.05 0.03 0.04 0.03 0.04 0.07 0.12 0.03 0.01 0.00 0.00 0.00 0.00 0.00 0.00 0.00 0.00 0.00 0.00 0.00 0.00 0.00 0.00 0.01 0.08 0.11 0.02 0.00 0.00 0.00 0.00 0.00 0.00 0.00 0.00 0.00 0.00 0.02 0.04 0.02 0.01 0.04
0.06 0.07 0.07 0.03 0.01 0.01 0.03 0.10 0.06 0.03 0.01 0.01 0.01 0.00 0.01 0.00 0.00 0.00 0.00 0.00 0.00 0.00 0.00 0.00 0.00 0.02 0.09 0.08 0.01 0.00 0.00 0.00 0.00 0.00 0.00 0.00 0.00 0.00 0.00 0.02 0.01 0.00 0.02 0.02
0.00 0.01 0.04 0.05 0.04 0.04 0.02 0.00 0.02 0.04 0.09 0.08 0.04 0.01 0.00 0.00 0.00 0.00 0.00 0.00 0.00 0.00 0.00 0.00 0.01 0.08 0.10 0.08 0.01 0.00 0.00 0.00 0.00 0.00 0.00 0.00 0.00 0.00 0.01 0.04 0.09 0.05 0.06 0.04
0.01 0.02 0.03 0.05 0.03 0.01 0.00 0.02 0.03 0.05 0.05 0.04 0.02 0.01 0.01 0.01 0.00 0.00 0.00 0.00 0.00 0.00 0.00 0.00 0.02 0.13 0.08 0.05 0.00 0.00 0.00 0.00 0.00 0.00 0.00 0.00 0.00 0.00 0.04 0.02 0.05 0.08 0.05 0.05
0.03 0.08 0.15 0.09 0.01 0.02 0.01 0.01 0.03 0.08 0.06 0.02 0.01 0.00 0.00 0.01 0.00 0.00 0.00 0.00 0.00 0.00 0.00 0.02 0.12 0.32 0.09 0.01 0.00 0.01 0.00 0.00 0.00 0.00 0.00 0.00 0.00 0.00 0.00 0.00 0.00 0.01 0.00 0.00
MSLP
1005.50 1005.33 1004.56 1003.99 1003.67 1003.01 1002.45 1001.76 1000.44 999.58 999.16 998.83 997.66 996.29 994.88 995.04 995.50 995.41 995.56 996.11 995.90 995.62 995.06 995.24 995.47 995.77 996.46 996.97 997.74 999.05 999.77 1000.30 1000.71 1000.99 1001.14 1001.43 1001.39 1001.47 1001.41 1001.63 1001.96 1002.23 1002.72 1003.42
1005.55 1004.64 1004.15 1003.81 1003.48 1003.12 1002.81 1002.13 1001.03 1000.51 1000.29 1000.15 998.66 996.67 995.39 994.38 993.78 993.95 994.39 994.77 995.22 994.85 994.59 994.43 994.65 995.15 995.73 996.79 997.63 998.42 999.25 999.73 1000.29 1000.59 1000.73 1000.85 1000.63 1000.55 1000.59 1001.00 1001.42 1001.86 1002.66 1003.28
1005.49 1004.98 1004.37 1003.92 1003.34 1002.94 1002.28 1001.88 1001.54 1001.16 1000.84 1000.65 999.43 997.25 995.76 994.39 993.75 993.03 992.68 993.13 993.83 994.16 993.82 993.89 994.16 994.76 995.54 996.48 997.35 997.98 998.54 999.02 999.58 1000.01 1000.16 1000.39 1000.32 1000.20 1000.20 1000.59 1001.23 1001.76 1002.53 1003.15
1005.44 1004.85 1004.39 1003.90 1003.28 1002.87 1001.85 1002.03 1001.62 1001.33 1001.09 1000.26 1000.20 997.08 996.12 994.70 993.73 992.78 991.71 991.59 992.30 993.15 993.32 993.26 993.47 994.22 994.97 995.77 996.48 997.26 997.96 998.48 998.95 999.45 999.66 999.86 1000.09 1000.08 999.88 1000.12 1000.76 1001.72 1002.36 1003.00
1005.02 1004.79 1004.45 1004.22 1003.85 1003.27 1002.26 1002.02 1001.89 1001.65 1001.23 1000.71 1000.03 998.65 996.15 995.18 993.14 992.10 991.37 991.10 991.05 991.82 992.41 992.75 992.90 993.40 994.17 994.99 995.73 996.39 997.09 997.73 998.16 998.71 998.90 999.38 999.56 999.44 999.56 999.77 1000.61 1001.34 1002.17 1002.86
1004.80 1005.20 1005.11 1004.51 1003.96 1003.33 1002.22 1002.31 1002.51 1002.50 1002.22 1000.82 999.79 999.14 995.90 995.22 993.24 991.94 990.93 990.74 990.39 990.79 991.53 991.97 992.15 992.60 993.27 993.92 994.55 995.48 996.26 996.81 997.26 997.81 998.23 998.53 998.92 998.96 999.12 999.56 1000.54 1001.23 1002.12 1002.89
1005.35 1004.64 1005.30 1005.55 1003.77 1003.08 1002.29 1002.62 1002.57 1002.25 1001.95 1000.28 999.92 998.68 995.80 995.18 993.65 992.08 990.65 989.89 989.65 989.86 990.37 990.74 991.24 991.82 992.53 993.12 993.76 994.35 995.10 995.80 996.41 997.03 997.42 998.23 998.24 998.50 998.63 999.21 1000.15 1001.08 1001.94 1002.73
1005.38 1005.15 1005.25 1004.58 1004.40 1003.50 1003.00 1003.09 1003.63 1003.41 1003.30 1002.09 1000.78 999.01 995.65 994.85 993.29 991.79 990.72 989.22 988.26 988.69 989.23 989.97 990.61 991.32 991.85 992.49 993.03 993.58 994.27 995.00 995.70 996.32 996.94 997.72 998.04 997.99 998.31 998.75 999.54 1000.69 1001.54 1002.19
1005.80 1005.31 1005.25 1004.47 1003.89 1003.83 1003.07 1002.97 1003.39 1004.01 1004.16 1003.22 1001.49 1000.02 997.33 995.03 992.55 992.26 990.86 989.73 989.38 989.50 989.70 990.08 990.79 991.36 991.79 992.08 992.40 992.80 993.65 994.54 995.21 995.81 996.57 997.37 997.70 997.55 997.91 998.49 999.17 1000.19 1000.80 1001.58
1006.39 1005.52 1005.26 1004.34 1003.62 1003.54 1003.15 1003.29 1003.25 1004.59 1004.09 1002.79 1000.72 998.99 996.90 995.34 993.06 992.17 991.36 990.13 989.77 990.26 990.53 990.61 991.11 991.46 991.83 992.08 992.33 992.56 993.19 994.07 994.74 995.53 996.36 996.97 997.17 997.38 997.79 998.54 999.10 999.75 1000.67 1001.37
1007.05 1006.63 1006.11 1005.24 1003.70 1003.26 1003.02 1002.38 1002.80 1003.30 1003.81 1002.37 1001.05 997.81 997.27 996.62 994.20 992.71 991.93 990.55 990.32 990.66 990.73 990.76 990.82 991.61 992.24 992.53 992.42 992.51 993.06 993.73 994.56 995.31 996.08 996.73 997.08 997.44 998.07 998.74 999.31 1000.00 1000.72 1001.41
1007.79 1007.73 1006.66 1005.58 1004.31 1004.84 1005.09 1003.72 1003.97 1005.03 1003.53 1002.35 1001.07 998.16 998.12 997.55 995.24 993.61 991.42 990.88 990.86 990.96 990.90 990.76 991.09 991.70 991.93 992.09 991.69 992.34 992.82 993.56 994.43 995.32 996.04 996.59 997.08 997.66 998.48 999.11 999.74 1000.34 1001.00 1001.50
1009.60 1008.20 1007.20 1005.64 1004.88 1006.31 1006.24 1004.90 1004.43 1004.21 1003.39 1001.56 999.91 998.56 998.43 998.85 998.11 997.41 992.68 991.69 991.69 991.77 991.43 991.09 991.02 991.29 991.25 990.98 991.53 992.31 992.97 993.62 994.47 995.31 996.03 996.74 997.34 998.07 998.83 999.50 1000.09 1000.76 1001.26 1001.65
1009.45 1008.83 1008.21 1007.34 1006.36 1006.08 1005.95 1004.41 1003.57 1003.07 1001.89 1000.24 999.28 998.56 1000.57 1001.60 1002.25 999.12 996.47 992.77 992.16 992.45 991.89 991.32 991.30 991.29 991.19 990.99 991.69 992.36 992.96 993.58 994.36 995.18 996.08 996.94 997.70 998.51 999.24 999.83 1000.35 1000.89 1001.33 1001.64
1008.98 1008.68 1007.89 1006.95 1006.12 1005.05 1003.95 1003.58 1002.39 1000.75 998.61 998.57 999.08 999.06 999.30 1001.36 1002.55 1000.51 998.26 995.06 993.13 992.51 991.90 991.68 991.56 991.65 991.63 992.01 991.76 992.38 992.90 993.66 994.44 995.34 996.32 997.30 998.05 998.81 999.52 1000.07 1000.55 1000.90 1001.23 1001.57
1009.06 1008.54 1007.84 1006.46 1005.54 1004.09 1003.36 1002.33 1000.59 999.23 998.07 997.03 998.02 998.40 998.15 999.86 1000.52 999.21 997.40 994.93 993.28 992.62 992.36 992.33 991.94 991.97 991.81 992.51 992.71 992.37 993.01 993.87 994.63 995.59 996.57 997.45 998.26 999.02 999.77 1000.25 1000.63 1000.99 1001.32 1001.52
1009.21 1008.81 1008.24 1006.26 1005.28 1003.86 1002.89 1002.49 1002.04 1000.31 1000.08 998.23 998.10 999.01 998.36 998.37 998.59 997.67 995.54 994.83 993.96 993.14 992.83 992.73 992.44 992.49 992.47 993.04 993.17 992.68 993.29 994.07 994.80 995.68 996.66 997.57 998.35 999.09 999.89 1000.27 1000.79 1001.06 1001.43 1001.79
1009.14 1009.25 1009.04 1007.14 1005.89 1004.22 1002.53 1002.74 1002.64 1001.54 1000.46 999.16 997.76 999.19 999.12 998.57 998.00 997.41 996.70 995.73 994.85 993.87 993.23 993.16 992.99 992.90 992.88 993.46 993.08 993.43 993.77 994.52 995.10 995.94 996.71 997.46 998.21 999.34 1000.08 1000.57 1000.92 1001.23 1001.70 1002.12
1009.27 1009.45 1009.34 1007.83 1006.05 1004.43 1003.45 1003.24 1004.04 1003.72 1001.35 1001.36 1000.99 999.53 999.74 999.93 998.85 997.64 996.96 996.35 995.38 994.42 993.72 993.55 993.09 993.43 993.12 993.61 993.58 994.14 994.18 994.68 995.23 995.93 996.55 997.25 998.18 999.35 1000.01 1000.62 1001.05 1001.40 1002.10 1002.62
1008.63 1009.45 1009.67 1008.06 1006.79 1005.05 1004.59 1004.79 1004.79 1004.59 1002.48 1001.75 1002.40 1001.98 1001.83 1001.44 1000.00 998.19 997.76 997.42 996.53 995.57 994.14 993.61 993.24 993.46 993.79 993.99 993.91 994.36 994.29 994.68 995.11 995.74 996.44 997.01 997.70 999.09 999.98 1000.54 1001.07 1001.78 1002.32 1002.63
1007.75 1008.46 1008.51 1007.82 1006.68 1004.84 1004.39 1004.28 1004.61 1004.74 1003.83 1002.72 1002.64 1002.57 1002.11 1001.33 1000.03 999.24 998.35 997.90 997.54 996.79 995.49 994.40 993.92 993.80 994.16 994.15 994.16 994.55 994.20 994.58 994.94 995.66 996.23 996.83 997.89 999.04 999.96 1000.59 1001.31 1002.02 1002.40 1002.78
1006.63 1006.73 1006.70 1006.50 1005.68 1004.30 1004.13 1004.66 1004.87 1003.93 1003.71 1003.93 1003.49 1002.24 1002.61 1002.04 1000.95 999.88 999.05 998.47 997.92 997.03 996.02 994.87 993.70 993.51 993.63 994.13 994.28 994.62 994.14 994.42 994.82 995.52 996.15 997.49 998.27 999.41 1000.23 1000.93 1001.69 1002.15 1002.55 1003.08
1005.20 1005.26 1005.38 1005.58 1004.13 1003.04 1003.52 1003.74 1003.81 1003.85 1003.63 1003.93 1003.94 1003.01 1002.30 1001.61 1000.72 1000.04 999.49 998.74 997.91 996.92 995.91 994.72 993.41 992.85 993.37 994.00 994.31 994.54 994.04 994.32 994.74 995.49 996.79 997.93 998.63 999.68 1000.49 1001.32 1001.79 1002.35 1002.80 1003.20
1004.44 1004.07 1003.98 1004.28 1002.83 1002.86 1002.77 1002.20 1002.34 1002.90 1003.27 1003.39 1002.94 1002.53 1001.79 1000.93 1000.40 999.32 999.21 998.44 997.46 996.50 995.27 994.00 993.13 993.11 993.45 993.84 994.15 994.54 994.00 994.26 994.74 996.04 997.19 998.27 999.03 1000.00 1000.71 1001.63 1002.27 1002.71 1003.17 1003.43
1004.29 1003.62 1003.70 1003.03 1002.28 1001.90 1001.73 1001.95 1002.30 1002.19 1002.46 1002.17 1002.20 1001.78 1001.00 1000.24 999.41 998.90 998.20 997.75 996.60 995.34 994.10 993.49 992.46 992.47 993.23 993.48 993.79 994.24 993.86 994.12 994.88 996.30 997.34 998.56 999.35 1000.20 1001.12 1002.35 1003.26 1003.35 1003.87 1003.75
1003.11 1003.34 1003.65 1002.98 1002.17 1001.81 1001.07 1001.22 1001.82 1001.93 1002.02 1001.82 1001.37 1000.57 999.98 999.44 998.58 997.96 997.68 996.81 995.66 994.49 993.94 993.50 993.30 992.72 992.89 993.13 993.41 993.82 993.72 994.06 995.05 996.15 997.47 998.44 999.40 1000.08 1001.05 1002.21 1003.64 1004.28 1004.36 1004.16
Thickness
5635 5623 5624 5636 5643 5652 5649 5647 5657 5679 5694 5679 5689 5705 5732 5745 5741 5746 5750 5751 5759 5772 5795 5802 5807 5812 5810 5805 5803 5808 5803 5803 5801 5800 5798 5796 5795 5797 5799 5800 5795 5792 5786 5777
5618 5613 5629 5634 5635 5634 5631 5627 5638 5654 5664 5650 5662 5680 5712 5734 5743 5748 5747 5751 5754 5769 5781 5794 5801 5803 5800 5793 5790 5803 5803 5801 5797 5798 5799 5798 5800 5801 5800 5798 5793 5789 5780 5773
5596 5604 5617 5615 5616 5615 5622 5617 5622 5623 5637 5633 5647 5654 5685 5720 5733 5748 5753 5758 5759 5761 5772 5782 5790 5794 5792 5783 5781 5797 5801 5799 5797 5797 5798 5796 5797 5796 5791 5790 5785 5781 5773 5766
5587 5597 5594 5593 5596 5603 5598 5616 5614 5611 5608 5599 5630 5623 5659 5697 5711 5729 5748 5755 5758 5760 5767 5777 5781 5783 5786 5782 5781 5792 5794 5796 5796 5796 5793 5789 5786 5784 5786 5785 5781 5773 5768 5760
5576 5577 5576 5571 5580 5592 5591 5605 5601 5601 5598 5598 5604 5606 5643 5679 5694 5715 5735 5749 5753 5760 5762 5766 5774 5780 5786 5782 5784 5787 5789 5790 5794 5792 5793 5786 5784 5788 5786 5784 5774 5768 5761 5755
5576 5576 5571 5570 5575 5580 5601 5588 5585 5584 5581 5571 5597 5598 5629 5648 5685 5710 5730 5740 5751 5752 5760 5764 5774 5778 5780 5786 5784 5784 5783 5785 5792 5791 5789 5786 5784 5784 5779 5777 5767 5762 5754 5747
5561 5568 5565 5559 5565 5581 5590 5576 5557 5559 5565 5569 5597 5594 5614 5647 5675 5700 5724 5736 5745 5753 5757 5763 5769 5770 5775 5776 5779 5783 5782 5782 5787 5788 5787 5783 5785 5781 5778 5774 5764 5756 5747 5740
5541 5536 5551 5566 5559 5563 5570 5568 5544 5526 5535 5547 5572 5562 5611 5644 5674 5700 5712 5740 5748 5752 5755 5757 5760 5766 5771 5773 5775 5778 5779 5779 5784 5784 5781 5779 5779 5779 5776 5773 5764 5754 5745 5739
5536 5537 5554 5563 5569 5565 5564 5556 5568 5544 5546 5537 5553 5567 5600 5627 5666 5679 5701 5722 5723 5731 5735 5745 5754 5758 5764 5768 5775 5776 5775 5774 5776 5776 5774 5772 5773 5776 5774 5768 5762 5753 5747 5740
5541 5528 5547 5555 5568 5567 5565 5567 5545 5529 5526 5531 5563 5572 5585 5612 5649 5670 5681 5701 5711 5716 5728 5741 5746 5749 5755 5766 5769 5772 5772 5770 5771 5769 5768 5768 5770 5772 5770 5762 5754 5749 5742 5736
5534 5526 5527 5542 5557 5559 5564 5567 5567 5560 5549 5550 5546 5582 5599 5604 5637 5655 5677 5699 5703 5709 5719 5731 5737 5741 5746 5753 5759 5766 5765 5766 5765 5767 5765 5763 5765 5766 5761 5754 5748 5742 5736 5730
5527 5513 5516 5530 5553 5542 5535 5554 5541 5517 5543 5554 5543 5571 5594 5601 5625 5653 5687 5694 5693 5702 5712 5724 5728 5732 5740 5745 5758 5759 5762 5762 5763 5761 5759 5758 5759 5757 5749 5744 5739 5735 5728 5724
5500 5514 5509 5528 5546 5521 5512 5534 5536 5529 5539 5551 5552 5566 5591 5585 5585 5589 5661 5678 5674 5686 5701 5712 5722 5730 5738 5749 5753 5753 5755 5757 5756 5755 5753 5751 5750 5746 5740 5735 5731 5725 5721 5717
5507 5507 5505 5502 5517 5520 5511 5532 5542 5535 5538 5558 5567 5570 5551 5549 5547 5573 5602 5659 5665 5671 5687 5703 5713 5723 5735 5744 5746 5747 5749 5753 5753 5751 5748 5744 5741 5736 5731 5728 5724 5720 5716 5712
5511 5504 5514 5522 5527 5535 5542 5540 5553 5562 5578 5567 5576 5575 5558 5537 5534 5564 5586 5616 5652 5664 5679 5693 5704 5715 5727 5729 5740 5745 5746 5747 5747 5745 5741 5735 5734 5730 5724 5720 5717 5715 5712 5708
5513 5508 5515 5522 5532 5543 5538 5549 5572 5580 5581 5584 5583 5580 5594 5550 5550 5567 5590 5622 5642 5656 5670 5685 5698 5708 5719 5720 5725 5741 5743 5742 5742 5738 5733 5731 5727 5722 5717 5714 5712 5709 5706 5704
5506 5508 5509 5519 5532 5539 5538 5542 5541 5553 5555 5568 5558 5557 5573 5575 5573 5580 5603 5617 5630 5648 5663 5677 5691 5702 5713 5713 5722 5733 5735 5736 5736 5732 5729 5725 5721 5716 5711 5710 5706 5704 5701 5698
5500 5498 5499 5510 5522 5517 5549 5543 5541 5545 5561 5569 5567 5564 5568 5574 5583 5590 5601 5608 5619 5639 5657 5670 5686 5697 5707 5710 5722 5725 5730 5729 5729 5726 5723 5721 5718 5709 5706 5703 5701 5698 5696 5691
5503 5501 5493 5506 5517 5531 5538 5537 5521 5518 5541 5548 5545 5557 5556 5557 5570 5588 5597 5606 5616 5632 5653 5668 5686 5693 5705 5709 5716 5718 5723 5725 5724 5721 5720 5718 5714 5705 5703 5698 5696 5694 5688 5683
5510 5496 5487 5507 5506 5513 5519 5517 5518 5515 5530 5545 5524 5524 5527 5533 5551 5577 5589 5596 5610 5626 5651 5666 5681 5692 5699 5705 5713 5713 5719 5720 5720 5719 5717 5718 5716 5706 5699 5697 5693 5688 5683 5679
5512 5493 5493 5499 5501 5522 5523 5521 5518 5507 5524 5526 5524 5522 5524 5531 5547 5560 5581 5589 5601 5616 5638 5660 5676 5687 5692 5701 5709 5708 5717 5716 5721 5720 5718 5717 5710 5703 5699 5693 5688 5682 5678 5675
5506 5513 5510 5508 5506 5513 5523 5511 5497 5515 5513 5510 5514 5526 5518 5528 5540 5556 5572 5582 5594 5616 5634 5654 5673 5689 5698 5699 5706 5705 5714 5719 5721 5719 5717 5708 5705 5699 5693 5687 5681 5677 5673 5668
5522 5523 5511 5506 5521 5533 5522 5512 5504 5504 5508 5499 5495 5507 5514 5524 5537 5552 5564 5579 5595 5613 5633 5655 5676 5692 5696 5698 5704 5704 5715 5719 5719 5715 5708 5702 5700 5694 5688 5681 5677 5672 5668 5663
5531 5534 5525 5517 5530 5524 5519 5524 5516 5504 5496 5493 5493 5495 5506 5520 5535 5556 5568 5582 5598 5615 5635 5659 5679 5689 5694 5698 5704 5706 5715 5718 5717 5708 5702 5697 5693 5688 5684 5677 5673 5668 5663 5659
5524 5529 5518 5521 5528 5527 5522 5514 5505 5503 5497 5494 5492 5496 5507 5522 5541 5559 5577 5586 5605 5624 5645 5661 5681 5692 5695 5700 5706 5708 5716 5718 5713 5704 5699 5692 5688 5682 5676 5666 5662 5663 5654 5656
5533 5523 5511 5513 5524 5517 5519 5513 5500 5495 5489 5491 5496 5504 5515 5527 5549 5568 5578 5595 5613 5632 5646 5661 5673 5688 5697 5704 5707 5708 5715 5717 5710 5701 5696 5690 5685 5681 5674 5666 5655 5643 5644 5646